Content
SEND FEEDBACK

Daily
Averages
Monthly
Summary
Brazil

BOA VISTA, PARAÍBA


Home > South America > Brazil > Paraíba
Elevation: 459 feet     Latitude: 02 50N     Longitude: 060 42W

WEATHER
 
SELECT A DAY
Number of Records: 180,759;   Date Range: 6/30/96 - 11/26/14
 
SHARE

PRINT THIS DATA

[ ← Previous Day ]
WEATHER ALMANAC - FEBRUARY 13, 2013
[ Next Day → ]
[ °C ]   °F
Weather ElementAverageHighLow
Temperature82.7 °F92 °F (2:00 pm)73.4 °F (5:00 am)
Dewpoint69.6 °F71.6 °F (7:00 am)67 °F (2:00 pm)
Humidity65.3 %89 % (7:00 am)35 % (2:00 pm)
Barometer26.53 in29.92 in (9:00 am) (7:00 pm)
Wind Speed7.8 mph15 mph (12:00 pm)
Weather ElementAverage
Visibility7.2 mi
Wind DirectionE (90.7 °)

Weather ElementTotal
Precipitation---
Cooling Degree Days17.7 (Base 65)
Growing Degree Days32.7 (Base 50)
Averaged from 27 records on February 13, 2013
WEATHER CONDITIONS BREAKOUT
WIND DIRECTION BREAKOUT
WEATHER BY HOUR - FEBRUARY 13, 2013
[ °C ]   °F
Local TimeTemperatureDewpointHumidityBarometerVisibilityWind DirectionWind SpeedGust SpeedPrecipitationEventsConditions
1:00 AM75.2 °F69.8 °F83 %29.89 in6.2 miESE (120°)4.6 mphScattered Clouds
2:00 AM76.0 °F70.0 °F76 %29.86 in12.0 miEast (80°)8.1 mphScattered Clouds
2:00 AM75.2 °F69.8 °F83 %29.86 in6.2 miEast (80°)8.1 mphScattered Clouds
3:00 AM75.2 °F69.8 °F83 %29.83 in6.2 miENE (60°)4.6 mphScattered Clouds
4:00 AM75.2 °F69.8 °F83 %29.83 in6.2 miNE (50°)3.5 mphScattered Clouds
5:00 AM73.4 °F69.8 °F88 %29.86 in6.2 miEast (80°)1.2 mphScattered Clouds
6:00 AM73.4 °F69.8 °F88 %29.86 in6.2 miENE (70°)4.6 mphScattered Clouds
7:00 AM75.2 °F71.6 °F89 %29.86 inEast (80°)3.5 mphClear
8:00 AM76.0 °F71.0 °F78 %29.90 in12.0 miESE (120°)6.9 mphPartly Cloudy
8:00 AM77.0 °F69.8 °F78 %29.89 inESE (120°)6.9 mphClear
9:00 AM80.6 °F69.8 °F70 %29.92 inEast (90°)10.4 mphClear
10:00 AM86.0 °F69.8 °F58 %29.92 in6.2 miENE (60°)11.5 mphPartly Cloudy
11:00 AM87.8 °F69.8 °F55 %29.89 in6.2 miEast (80°)13.8 mphScattered Clouds
12:00 PM87.8 °F68.0 °F52 %29.89 in6.2 miENE (60°)15.0 mphMostly Cloudy
1:00 PM91.4 °F68.0 °F46 %29.86 in6.2 miSE (130°)10.4 mphMostly Cloudy
2:00 PM92.0 °F67.0 °F35 %29.81 in12.0 miENE (70°)6.9 mphMostly Cloudy
2:00 PM91.4 °F68.0 °F46 %29.80 in6.2 miENE (70°)6.9 mphMostly Cloudy
3:00 PM91.4 °F68.0 °F46 %5.0 miEast (100°)15.0 mphScattered Clouds
4:00 PM87.8 °F69.8 °F55 %5.0 miESE (120°)8.1 mphScattered Clouds
5:00 PM86.0 °F69.8 °F58 %5.0 miSE (130°)11.5 mphScattered Clouds
6:00 PM87.8 °F68.0 °F52 %29.74 in6.2 miESE (120°)6.9 mphPartly Cloudy
7:00 PM87.8 °F69.8 °F55 %29.77 inESE (120°)5.8 mphClear
8:00 PM86.0 °F70.0 °F49 %29.79 in12.0 miESE (120°)4.6 mph
8:00 PM86.0 °F69.8 °F58 %29.80 inESE (120°)4.6 mphClear
9:00 PM84.2 °F71.6 °F66 %29.83 in6.2 miENE (60°)6.9 mphPartly Cloudy
10:00 PM84.2 °F71.6 °F66 %29.86 inEast (80°)9.2 mphClear
11:00 PM82.4 °F69.8 °F66 %29.89 inENE (60°)10.4 mphClear
Hourly data recorded from SBBV, located miles away from Boa Vista, Paraíba







STORIES FROM OUR PARTNERS